Year,Month,Day,Hour,Minute,Value (Times are PST for temperature in C)
2016,09,19,00,00,12.40
2016,09,19,00,01,12.40
2016,09,19,00,02,12.40
2016,09,19,00,03,12.40
2016,09,19,00,04,12.50
2016,09,19,00,05,12.50
2016,09,19,00,06,12.50
2016,09,19,00,07,12.50
2016,09,19,00,08,12.60
2016,09,19,00,09,12.60
2016,09,19,00,10,12.60
2016,09,19,00,11,12.60
2016,09,19,00,12,12.60
2016,09,19,00,13,12.70
2016,09,19,00,14,12.70
2016,09,19,00,15,12.80
2016,09,19,00,16,12.80
2016,09,19,00,17,12.80
2016,09,19,00,18,12.80
2016,09,19,00,19,12.80
2016,09,19,00,20,12.80
2016,09,19,00,21,12.80
2016,09,19,00,22,12.80
2016,09,19,00,23,12.80
2016,09,19,00,24,12.80
2016,09,19,00,25,12.80
2016,09,19,00,26,12.90
2016,09,19,00,27,12.90
2016,09,19,00,28,12.90
2016,09,19,00,29,12.90
2016,09,19,00,30,13.00
2016,09,19,00,31,13.00
2016,09,19,00,32,13.00
2016,09,19,00,33,13.10
2016,09,19,00,34,13.10
2016,09,19,00,35,13.10
2016,09,19,00,36,13.10
2016,09,19,00,37,13.10
2016,09,19,00,38,13.10
2016,09,19,00,39,13.10
2016,09,19,00,40,13.10
2016,09,19,00,41,13.10
2016,09,19,00,42,13.10
2016,09,19,00,43,13.10
2016,09,19,00,44,13.10
2016,09,19,00,45,13.10
2016,09,19,00,46,13.10
2016,09,19,00,47,13.10
2016,09,19,00,48,13.10
2016,09,19,00,49,13.10
2016,09,19,00,50,13.10
2016,09,19,00,51,13.10
2016,09,19,00,52,13.10
2016,09,19,00,53,13.10
2016,09,19,00,54,13.10
2016,09,19,00,55,13.10
2016,09,19,00,56,13.10
2016,09,19,00,57,13.10
2016,09,19,00,58,13.10
2016,09,19,00,59,13.10
2016,09,19,01,00,13.10
2016,09,19,01,01,13.10
2016,09,19,01,02,13.10
2016,09,19,01,03,13.10
2016,09,19,01,04,13.10
2016,09,19,01,05,13.10
2016,09,19,01,06,13.10
2016,09,19,01,07,13.20
2016,09,19,01,08,13.20
2016,09,19,01,09,13.20
2016,09,19,01,10,13.20
2016,09,19,01,11,13.10
2016,09,19,01,12,13.20
2016,09,19,01,13,13.20
2016,09,19,01,14,13.10
2016,09,19,01,15,13.10
2016,09,19,01,16,13.10
2016,09,19,01,17,13.10
2016,09,19,01,18,13.10
2016,09,19,01,19,13.00
2016,09,19,01,20,13.00
2016,09,19,01,21,13.00
2016,09,19,01,22,12.90
2016,09,19,01,23,12.90
2016,09,19,01,24,12.90
2016,09,19,01,25,12.90
2016,09,19,01,26,12.90
2016,09,19,01,27,12.90
2016,09,19,01,28,12.90
2016,09,19,01,29,12.90
2016,09,19,01,30,12.90
2016,09,19,01,31,12.90
2016,09,19,01,32,13.00
2016,09,19,01,33,13.00
2016,09,19,01,34,13.00
2016,09,19,01,35,13.00
2016,09,19,01,36,13.00
2016,09,19,01,37,13.00
2016,09,19,01,38,13.00
2016,09,19,01,39,13.00
2016,09,19,01,40,13.00
2016,09,19,01,41,13.00
2016,09,19,01,42,13.00
2016,09,19,01,43,13.00
2016,09,19,01,44,13.10
2016,09,19,01,45,13.00
2016,09,19,01,46,13.00
2016,09,19,01,47,13.00
2016,09,19,01,48,13.00
2016,09,19,01,49,13.00
2016,09,19,01,50,13.00
2016,09,19,01,51,13.10
2016,09,19,01,52,13.10
2016,09,19,01,53,13.10
2016,09,19,01,54,13.10
2016,09,19,01,55,13.10
2016,09,19,01,56,13.10
2016,09,19,01,57,13.10
2016,09,19,01,58,13.10
2016,09,19,01,59,13.10
2016,09,19,02,00,13.10
2016,09,19,02,01,13.10
2016,09,19,02,02,13.10
2016,09,19,02,03,13.10
2016,09,19,02,04,13.10
2016,09,19,02,05,13.10
2016,09,19,02,06,13.20
2016,09,19,02,07,13.20
2016,09,19,02,08,13.20
2016,09,19,02,09,13.20
2016,09,19,02,10,13.20
2016,09,19,02,11,13.20
2016,09,19,02,12,13.20
2016,09,19,02,13,13.20
2016,09,19,02,14,13.20
2016,09,19,02,15,13.20
2016,09,19,02,16,13.20
2016,09,19,02,17,13.20
2016,09,19,02,18,13.10
2016,09,19,02,19,13.00
2016,09,19,02,20,13.00
2016,09,19,02,21,13.00
2016,09,19,02,22,13.00
2016,09,19,02,23,12.90
2016,09,19,02,24,12.90
2016,09,19,02,25,12.90
2016,09,19,02,26,12.90
2016,09,19,02,27,12.90
2016,09,19,02,28,12.90
2016,09,19,02,29,12.90
2016,09,19,02,30,13.00
2016,09,19,02,31,13.00
2016,09,19,02,32,13.00
2016,09,19,02,33,13.00
2016,09,19,02,34,13.00
2016,09,19,02,35,12.90
2016,09,19,02,36,12.90
2016,09,19,02,37,12.90
2016,09,19,02,38,12.80
2016,09,19,02,39,12.80
2016,09,19,02,40,12.90
2016,09,19,02,41,12.90
2016,09,19,02,42,12.90
2016,09,19,02,43,12.90
2016,09,19,02,44,12.90
2016,09,19,02,45,12.90
2016,09,19,02,46,12.90
2016,09,19,02,47,12.90
2016,09,19,02,48,12.90
2016,09,19,02,49,12.80
2016,09,19,02,50,12.80
2016,09,19,02,51,12.80
2016,09,19,02,52,12.70
2016,09,19,02,53,12.70
2016,09,19,02,54,12.60
2016,09,19,02,55,12.60
2016,09,19,02,56,12.60
2016,09,19,02,57,12.50
2016,09,19,02,58,12.50
2016,09,19,02,59,12.50
2016,09,19,03,00,12.40
2016,09,19,03,01,12.40
2016,09,19,03,02,12.40
2016,09,19,03,03,12.40
2016,09,19,03,04,12.40
2016,09,19,03,05,12.30
2016,09,19,03,06,12.30
2016,09,19,03,07,12.30
2016,09,19,03,08,12.20
2016,09,19,03,09,12.10
2016,09,19,03,10,12.10
2016,09,19,03,11,12.00
2016,09,19,03,12,11.90
2016,09,19,03,13,11.90
2016,09,19,03,14,11.80
2016,09,19,03,15,11.80
2016,09,19,03,16,11.70
2016,09,19,03,17,11.70
2016,09,19,03,18,11.70
2016,09,19,03,19,11.60
2016,09,19,03,20,11.60
2016,09,19,03,21,11.60
2016,09,19,03,22,11.50
2016,09,19,03,23,11.50
2016,09,19,03,24,11.50
2016,09,19,03,25,11.50
2016,09,19,03,26,11.40
2016,09,19,03,27,11.40
2016,09,19,03,28,11.40
2016,09,19,03,29,11.40
2016,09,19,03,30,11.40
2016,09,19,03,31,11.40
2016,09,19,03,32,11.30
2016,09,19,03,33,11.30
2016,09,19,03,34,11.30
2016,09,19,03,35,11.30
2016,09,19,03,36,11.30
2016,09,19,03,37,11.40
2016,09,19,03,38,11.40
2016,09,19,03,39,11.40
2016,09,19,03,40,11.40
2016,09,19,03,41,11.40
2016,09,19,03,42,11.40
2016,09,19,03,43,11.40
2016,09,19,03,44,11.40
2016,09,19,03,45,11.40
2016,09,19,03,46,11.40
2016,09,19,03,47,11.40
2016,09,19,03,48,11.40
2016,09,19,03,49,11.50
2016,09,19,03,50,11.50
2016,09,19,03,51,11.50
2016,09,19,03,52,11.50
2016,09,19,03,53,11.50
2016,09,19,03,54,11.50
2016,09,19,03,55,11.50
2016,09,19,03,56,11.60
2016,09,19,03,57,11.60
2016,09,19,03,58,11.60
2016,09,19,03,59,11.60
2016,09,19,04,00,11.60
2016,09,19,04,01,11.60
2016,09,19,04,02,11.60
2016,09,19,04,03,11.60
2016,09,19,04,04,11.70
2016,09,19,04,05,11.70
2016,09,19,04,06,11.60
2016,09,19,04,07,11.60
2016,09,19,04,08,11.60
2016,09,19,04,09,11.50
2016,09,19,04,10,11.40
2016,09,19,04,11,11.40
2016,09,19,04,12,11.30
2016,09,19,04,13,11.30
2016,09,19,04,14,11.30
2016,09,19,04,15,11.20
2016,09,19,04,16,11.20
2016,09,19,04,17,11.10
2016,09,19,04,18,11.10
2016,09,19,04,19,11.00
2016,09,19,04,20,11.00
2016,09,19,04,21,11.00
2016,09,19,04,22,11.00
2016,09,19,04,23,10.90
2016,09,19,04,24,10.90
2016,09,19,04,25,10.90
2016,09,19,04,26,10.90
2016,09,19,04,27,10.90
2016,09,19,04,28,11.00
2016,09,19,04,29,10.90
2016,09,19,04,30,11.00
2016,09,19,04,31,11.00
2016,09,19,04,32,11.00
2016,09,19,04,33,11.00
2016,09,19,04,34,11.00
2016,09,19,04,35,10.90
2016,09,19,04,36,10.90
2016,09,19,04,37,10.90
2016,09,19,04,38,10.90
2016,09,19,04,39,10.90
2016,09,19,04,40,10.90
2016,09,19,04,41,10.90
2016,09,19,04,42,10.90
2016,09,19,04,43,10.90
2016,09,19,04,44,10.90
2016,09,19,04,45,10.90
2016,09,19,04,46,10.90
2016,09,19,04,47,10.90
2016,09,19,04,48,10.90
2016,09,19,04,49,10.90
2016,09,19,04,50,10.90
2016,09,19,04,51,10.90
2016,09,19,04,52,10.90
2016,09,19,04,53,10.90
2016,09,19,04,54,10.90
2016,09,19,04,55,10.80
2016,09,19,04,56,10.80
2016,09,19,04,57,10.80
2016,09,19,04,58,10.80
2016,09,19,04,59,10.80
2016,09,19,05,00,10.80
2016,09,19,05,01,10.80
2016,09,19,05,02,10.80
2016,09,19,05,03,10.80
2016,09,19,05,04,10.80
2016,09,19,05,05,10.80
2016,09,19,05,06,10.80
2016,09,19,05,07,10.80
2016,09,19,05,08,10.80
2016,09,19,05,09,10.80
2016,09,19,05,10,10.80
2016,09,19,05,11,10.80
2016,09,19,05,12,10.80
2016,09,19,05,13,10.80
2016,09,19,05,14,10.80
2016,09,19,05,15,10.80
2016,09,19,05,16,10.80
2016,09,19,05,17,10.80
2016,09,19,05,18,10.80
2016,09,19,05,19,10.80
2016,09,19,05,20,10.80
2016,09,19,05,21,10.80
2016,09,19,05,22,10.80
2016,09,19,05,23,10.80
2016,09,19,05,24,10.80
2016,09,19,05,25,10.80
2016,09,19,05,26,10.80
2016,09,19,05,27,10.80
2016,09,19,05,28,10.80
2016,09,19,05,29,10.80
2016,09,19,05,30,10.80
2016,09,19,05,31,10.80
2016,09,19,05,32,10.80
2016,09,19,05,33,10.80
2016,09,19,05,34,10.80
2016,09,19,05,35,10.80
2016,09,19,05,36,10.80
2016,09,19,05,37,10.80
2016,09,19,05,38,10.80
2016,09,19,05,39,10.80
2016,09,19,05,40,10.80
2016,09,19,05,41,10.80
2016,09,19,05,42,10.80
2016,09,19,05,43,10.80
2016,09,19,05,44,10.80
2016,09,19,05,45,10.80
2016,09,19,05,46,10.80
2016,09,19,05,47,10.80
2016,09,19,05,48,10.80
2016,09,19,05,49,10.80
2016,09,19,05,50,10.80
2016,09,19,05,51,10.70
2016,09,19,05,52,10.70
2016,09,19,05,53,10.70
2016,09,19,05,54,10.70
2016,09,19,05,55,10.70
2016,09,19,05,56,10.70
2016,09,19,05,57,10.70
2016,09,19,05,58,10.70
2016,09,19,05,59,10.70
2016,09,19,06,00,10.70
2016,09,19,06,01,10.70
2016,09,19,06,02,10.70
2016,09,19,06,03,10.70
2016,09,19,06,04,10.70
2016,09,19,06,05,10.70
2016,09,19,06,06,10.70
2016,09,19,06,07,10.70
2016,09,19,06,08,10.70
2016,09,19,06,09,10.70
2016,09,19,06,10,10.70
2016,09,19,06,11,10.70
2016,09,19,06,12,10.70
2016,09,19,06,13,10.70
2016,09,19,06,14,10.70
2016,09,19,06,15,10.70
2016,09,19,06,16,10.70
2016,09,19,06,17,10.70
2016,09,19,06,18,10.70
2016,09,19,06,19,10.70
2016,09,19,06,20,10.70
2016,09,19,06,21,10.70
2016,09,19,06,22,10.70
2016,09,19,06,23,10.70
2016,09,19,06,24,10.70
2016,09,19,06,25,10.70
2016,09,19,06,26,10.70
2016,09,19,06,27,10.70
2016,09,19,06,28,10.70
2016,09,19,06,29,10.60
2016,09,19,06,30,10.60
2016,09,19,06,31,10.60
2016,09,19,06,32,10.60
2016,09,19,06,33,10.60
2016,09,19,06,34,10.60
2016,09,19,06,35,10.60
2016,09,19,06,36,10.70
2016,09,19,06,37,10.70
2016,09,19,06,38,10.70
2016,09,19,06,39,10.70
2016,09,19,06,40,10.70
2016,09,19,06,41,10.70
2016,09,19,06,42,10.70
2016,09,19,06,43,10.70
2016,09,19,06,44,10.70
2016,09,19,06,45,10.70
2016,09,19,06,46,10.70
2016,09,19,06,47,10.70
2016,09,19,06,48,10.70
2016,09,19,06,49,10.70
2016,09,19,06,50,10.70
2016,09,19,06,51,10.70
2016,09,19,06,52,10.70
2016,09,19,06,53,10.70
2016,09,19,06,54,10.70
2016,09,19,06,55,10.70
2016,09,19,06,56,10.70
2016,09,19,06,57,10.70
2016,09,19,06,58,10.70
2016,09,19,06,59,10.70
2016,09,19,07,00,10.70
2016,09,19,07,01,10.70
2016,09,19,07,02,10.70
2016,09,19,07,03,10.70
2016,09,19,07,04,10.60
2016,09,19,07,05,10.60
2016,09,19,07,06,10.60
2016,09,19,07,07,10.60
2016,09,19,07,08,10.60
2016,09,19,07,09,10.60
2016,09,19,07,10,10.60
2016,09,19,07,11,10.50
2016,09,19,07,12,10.50
2016,09,19,07,13,10.50
2016,09,19,07,14,10.50
2016,09,19,07,15,10.50
2016,09,19,07,16,10.40
2016,09,19,07,17,10.50
2016,09,19,07,18,10.40
2016,09,19,07,19,10.40
2016,09,19,07,20,10.40
2016,09,19,07,21,10.40
2016,09,19,07,22,10.40
2016,09,19,07,23,10.40
2016,09,19,07,24,10.40
2016,09,19,07,25,10.40
2016,09,19,07,26,10.40
2016,09,19,07,27,10.40
2016,09,19,07,28,10.40
2016,09,19,07,29,10.40
2016,09,19,07,30,10.40
2016,09,19,07,31,10.40
2016,09,19,07,32,10.40
2016,09,19,07,33,10.40
2016,09,19,07,34,10.40
2016,09,19,07,35,10.30
2016,09,19,07,36,10.30
2016,09,19,07,37,10.30
2016,09,19,07,38,10.30
2016,09,19,07,39,10.30
2016,09,19,07,40,10.30
2016,09,19,07,41,10.30
2016,09,19,07,42,10.30
2016,09,19,07,43,10.30
2016,09,19,07,44,10.20
2016,09,19,07,45,10.20
2016,09,19,07,46,10.20
2016,09,19,07,47,10.20
2016,09,19,07,48,10.20
2016,09,19,07,49,10.20
2016,09,19,07,50,10.20
2016,09,19,07,51,10.20
2016,09,19,07,52,10.20
2016,09,19,07,53,10.20
2016,09,19,07,54,10.10
2016,09,19,07,55,10.10
2016,09,19,07,56,10.10
2016,09,19,07,57,10.10
2016,09,19,07,58,10.10
2016,09,19,07,59,10.10
2016,09,19,08,00,10.10
2016,09,19,08,01,10.10
2016,09,19,08,02,10.10
2016,09,19,08,03,10.10
2016,09,19,08,04,10.10
2016,09,19,08,05,10.10
2016,09,19,08,06,10.10
2016,09,19,08,07,10.10
2016,09,19,08,08,10.20
2016,09,19,08,09,10.20
2016,09,19,08,10,10.20
2016,09,19,08,11,10.10
2016,09,19,08,12,10.20
2016,09,19,08,13,10.20
2016,09,19,08,14,10.20
2016,09,19,08,15,10.20
2016,09,19,08,16,10.20
2016,09,19,08,17,10.20
2016,09,19,08,18,10.20
2016,09,19,08,19,10.20
2016,09,19,08,20,10.20
2016,09,19,08,21,10.20
2016,09,19,08,22,10.20
2016,09,19,08,23,10.20
2016,09,19,08,24,10.20
2016,09,19,08,25,10.20
2016,09,19,08,26,10.20
2016,09,19,08,27,10.20
2016,09,19,08,28,10.20
2016,09,19,08,29,10.20
2016,09,19,08,30,10.20
2016,09,19,08,31,10.20
2016,09,19,08,32,10.20
2016,09,19,08,33,10.20
2016,09,19,08,34,10.20
2016,09,19,08,35,10.20
2016,09,19,08,36,10.20
2016,09,19,08,37,10.30
2016,09,19,08,38,10.30
2016,09,19,08,39,10.30
2016,09,19,08,40,10.30
2016,09,19,08,41,10.30
2016,09,19,08,42,10.30
2016,09,19,08,43,10.40
2016,09,19,08,44,10.40
2016,09,19,08,45,10.40
2016,09,19,08,46,10.40
2016,09,19,08,47,10.40
2016,09,19,08,48,10.50
2016,09,19,08,49,10.50
2016,09,19,08,50,10.60
2016,09,19,08,51,10.60
2016,09,19,08,52,10.60
2016,09,19,08,53,10.70
2016,09,19,08,54,10.70
2016,09,19,08,55,10.70
2016,09,19,08,56,10.70
2016,09,19,08,57,10.80
2016,09,19,08,58,10.80
2016,09,19,08,59,10.80
2016,09,19,09,00,10.80
2016,09,19,09,01,10.80
2016,09,19,09,02,10.80
2016,09,19,09,03,10.80
2016,09,19,09,04,10.80
2016,09,19,09,05,10.80
2016,09,19,09,06,10.80
2016,09,19,09,07,10.90
2016,09,19,09,08,10.90
2016,09,19,09,09,10.90
2016,09,19,09,10,10.90
2016,09,19,09,11,11.00
2016,09,19,09,12,11.00
2016,09,19,09,13,11.10
2016,09,19,09,14,11.10
2016,09,19,09,15,11.10
2016,09,19,09,16,11.10
2016,09,19,09,17,11.10
2016,09,19,09,18,11.00
2016,09,19,09,19,11.00
2016,09,19,09,20,10.90
2016,09,19,09,21,10.90
2016,09,19,09,22,10.90
2016,09,19,09,23,10.80
2016,09,19,09,24,10.80
2016,09,19,09,25,10.80
2016,09,19,09,26,10.80
2016,09,19,09,27,10.80
2016,09,19,09,28,10.80
2016,09,19,09,29,10.90
2016,09,19,09,30,10.90
2016,09,19,09,31,10.90
2016,09,19,09,32,10.90
2016,09,19,09,33,10.90
2016,09,19,09,34,10.90
2016,09,19,09,35,10.90
2016,09,19,09,36,10.90
2016,09,19,09,37,10.90
2016,09,19,09,38,10.90
2016,09,19,09,39,11.00
2016,09,19,09,40,11.00
2016,09,19,09,41,11.00
2016,09,19,09,42,11.00
2016,09,19,09,43,11.00
2016,09,19,09,44,11.00
2016,09,19,09,45,11.10
2016,09,19,09,46,11.10
2016,09,19,09,47,11.10
2016,09,19,09,48,11.10
2016,09,19,09,49,11.20
2016,09,19,09,50,11.20
2016,09,19,09,51,11.20
2016,09,19,09,52,11.20
2016,09,19,09,53,11.30
2016,09,19,09,54,11.30
2016,09,19,09,55,11.30
2016,09,19,09,56,11.30
2016,09,19,09,57,11.30
2016,09,19,09,58,11.30
2016,09,19,09,59,11.40
2016,09,19,10,00,11.40
2016,09,19,10,01,11.40
2016,09,19,10,02,11.40
2016,09,19,10,03,11.40
2016,09,19,10,04,11.50
2016,09,19,10,05,11.50
2016,09,19,10,06,11.50
2016,09,19,10,07,11.50
2016,09,19,10,08,11.60
2016,09,19,10,09,11.60
2016,09,19,10,10,11.60
2016,09,19,10,11,11.70
2016,09,19,10,12,11.80
2016,09,19,10,13,11.80
2016,09,19,10,14,11.80
2016,09,19,10,15,11.90
2016,09,19,10,16,11.90
2016,09,19,10,17,11.90
2016,09,19,10,18,12.00
2016,09,19,10,19,12.00
2016,09,19,10,20,11.90
2016,09,19,10,21,11.90
2016,09,19,10,22,11.80
2016,09,19,10,23,11.80
2016,09,19,10,24,11.90
2016,09,19,10,25,11.90
2016,09,19,10,26,12.00
2016,09,19,10,27,12.10
2016,09,19,10,28,12.10
2016,09,19,10,29,12.20
2016,09,19,10,30,12.20
2016,09,19,10,31,12.20
2016,09,19,10,32,12.30
2016,09,19,10,33,12.40
2016,09,19,10,34,12.50
2016,09,19,10,35,12.60
2016,09,19,10,36,12.70
2016,09,19,10,37,12.70
2016,09,19,10,38,12.80
2016,09,19,10,39,12.80
2016,09,19,10,40,12.80
2016,09,19,10,41,12.90
2016,09,19,10,42,12.80
2016,09,19,10,43,12.80
2016,09,19,10,44,12.80
2016,09,19,10,45,12.80
2016,09,19,10,46,12.80
2016,09,19,10,47,12.90
2016,09,19,10,48,12.90
2016,09,19,10,49,12.90
2016,09,19,10,50,13.00
2016,09,19,10,51,13.10
2016,09,19,10,52,13.10
2016,09,19,10,53,13.10
2016,09,19,10,54,13.20
2016,09,19,10,55,13.20
2016,09,19,10,56,13.30
2016,09,19,10,57,13.30
2016,09,19,10,58,13.30
2016,09,19,10,59,13.30
2016,09,19,11,00,13.30
2016,09,19,11,01,13.40
2016,09,19,11,02,13.50
2016,09,19,11,03,13.60
2016,09,19,11,04,13.60
2016,09,19,11,05,13.70
2016,09,19,11,06,13.70
2016,09,19,11,07,13.80
2016,09,19,11,08,13.80
2016,09,19,11,09,13.80
2016,09,19,11,10,13.80
2016,09,19,11,11,13.70
2016,09,19,11,12,13.70
2016,09,19,11,13,13.70
2016,09,19,11,14,13.60
2016,09,19,11,15,13.60
2016,09,19,11,16,13.60
2016,09,19,11,17,13.50
2016,09,19,11,18,13.50
2016,09,19,11,19,13.50
2016,09,19,11,20,13.50
2016,09,19,11,21,13.60
2016,09,19,11,22,13.60
2016,09,19,11,23,13.60
2016,09,19,11,24,13.60
2016,09,19,11,25,13.60
2016,09,19,11,26,13.60
2016,09,19,11,27,13.60
2016,09,19,11,28,13.60
2016,09,19,11,29,13.60
2016,09,19,11,30,13.70
2016,09,19,11,31,13.80
2016,09,19,11,32,13.90
2016,09,19,11,33,14.00
2016,09,19,11,34,14.10
2016,09,19,11,35,14.20
2016,09,19,11,36,14.30
2016,09,19,11,37,14.40
2016,09,19,11,38,14.50
2016,09,19,11,39,14.60
2016,09,19,11,40,14.60
2016,09,19,11,41,14.60
2016,09,19,11,42,14.60
2016,09,19,11,43,14.60
2016,09,19,11,44,14.60
2016,09,19,11,45,14.60
2016,09,19,11,46,14.60
2016,09,19,11,47,14.60
2016,09,19,11,48,14.70
2016,09,19,11,49,14.70
2016,09,19,11,50,14.60
2016,09,19,11,51,14.60
2016,09,19,11,52,14.70
2016,09,19,11,53,14.70
2016,09,19,11,54,14.70
2016,09,19,11,55,14.70
2016,09,19,11,56,14.70
2016,09,19,11,57,14.70
2016,09,19,11,58,14.70
2016,09,19,11,59,14.70
2016,09,19,12,00,14.60
2016,09,19,12,01,14.60
2016,09,19,12,02,14.60
2016,09,19,12,03,14.60
2016,09,19,12,04,14.60
2016,09,19,12,05,14.60
2016,09,19,12,06,14.50
2016,09,19,12,07,14.50
2016,09,19,12,08,14.50
2016,09,19,12,09,14.50
2016,09,19,12,10,14.50
2016,09,19,12,11,14.50
2016,09,19,12,12,14.60
2016,09,19,12,13,14.60
2016,09,19,12,14,14.60
2016,09,19,12,15,14.70
2016,09,19,12,16,14.80
2016,09,19,12,17,14.90
2016,09,19,12,18,15.00
2016,09,19,12,19,15.10
2016,09,19,12,20,15.10
2016,09,19,12,21,15.20
2016,09,19,12,22,15.40
2016,09,19,12,23,15.60
2016,09,19,12,24,15.70
2016,09,19,12,25,15.80
2016,09,19,12,26,15.90
2016,09,19,12,27,15.90
2016,09,19,12,28,16.00
2016,09,19,12,29,16.10
2016,09,19,12,30,16.00
2016,09,19,12,31,16.00
2016,09,19,12,32,15.90
2016,09,19,12,33,15.80
2016,09,19,12,34,15.80
2016,09,19,12,35,15.70
2016,09,19,12,36,15.60
2016,09,19,12,37,15.50
2016,09,19,12,38,15.40
2016,09,19,12,39,15.30
2016,09,19,12,40,15.20
2016,09,19,12,41,15.20
2016,09,19,12,42,15.20
2016,09,19,12,43,15.20
2016,09,19,12,44,15.20
2016,09,19,12,45,15.20
2016,09,19,12,46,15.30
2016,09,19,12,47,15.30
2016,09,19,12,48,15.30
2016,09,19,12,49,15.30
2016,09,19,12,50,15.30
2016,09,19,12,51,15.30
2016,09,19,12,52,15.30
2016,09,19,12,53,15.30
2016,09,19,12,54,15.30
2016,09,19,12,55,15.20
2016,09,19,12,56,15.20
2016,09,19,12,57,15.20
2016,09,19,12,58,15.10
2016,09,19,12,59,15.10
2016,09,19,13,00,15.20
2016,09,19,13,01,15.20
2016,09,19,13,02,15.30
2016,09,19,13,03,15.40
2016,09,19,13,04,15.40
2016,09,19,13,05,15.40
2016,09,19,13,06,15.40
2016,09,19,13,07,15.20
2016,09,19,13,08,15.00
2016,09,19,13,09,14.90
2016,09,19,13,10,14.90
2016,09,19,13,11,14.80
2016,09,19,13,12,14.70
2016,09,19,13,13,14.70
2016,09,19,13,14,14.70
2016,09,19,13,15,14.60
2016,09,19,13,16,14.60
2016,09,19,13,17,14.60
2016,09,19,13,18,14.60
2016,09,19,13,19,14.50
2016,09,19,13,20,14.60
2016,09,19,13,21,14.60
2016,09,19,13,22,14.70
2016,09,19,13,23,14.80
2016,09,19,13,24,14.80
2016,09,19,13,25,14.90
2016,09,19,13,26,14.90
2016,09,19,13,27,15.10
2016,09,19,13,28,15.20
2016,09,19,13,29,15.20
2016,09,19,13,30,15.20
2016,09,19,13,31,15.30
2016,09,19,13,32,15.30
2016,09,19,13,33,15.40
2016,09,19,13,34,15.40
2016,09,19,13,35,15.40
2016,09,19,13,36,15.40
2016,09,19,13,37,15.40
2016,09,19,13,38,15.50
2016,09,19,13,39,15.50
2016,09,19,13,40,15.50
2016,09,19,13,41,15.50
2016,09,19,13,42,15.50
2016,09,19,13,43,15.50
2016,09,19,13,44,15.60
2016,09,19,13,45,15.60
2016,09,19,13,46,15.60
2016,09,19,13,47,15.70
2016,09,19,13,48,15.70
2016,09,19,13,49,15.70
2016,09,19,13,50,15.70
2016,09,19,13,51,15.70
2016,09,19,13,52,15.80
2016,09,19,13,53,15.70
2016,09,19,13,54,15.60
2016,09,19,13,55,15.60
2016,09,19,13,56,15.60
2016,09,19,13,57,15.70
2016,09,19,13,58,15.70
2016,09,19,13,59,15.80
2016,09,19,14,00,15.80
2016,09,19,14,01,15.80
2016,09,19,14,02,15.80
2016,09,19,14,03,15.80
2016,09,19,14,04,15.90
2016,09,19,14,05,15.90
2016,09,19,14,06,15.90
2016,09,19,14,07,15.90
2016,09,19,14,08,15.90
2016,09,19,14,09,15.90
2016,09,19,14,10,15.90
2016,09,19,14,11,15.90
2016,09,19,14,12,15.90
2016,09,19,14,13,15.90
2016,09,19,14,14,15.90
2016,09,19,14,15,15.80
2016,09,19,14,16,15.80
2016,09,19,14,17,15.90
2016,09,19,14,18,15.90
2016,09,19,14,19,15.90
2016,09,19,14,20,16.00
2016,09,19,14,21,16.00
2016,09,19,14,22,16.10
2016,09,19,14,23,16.10
2016,09,19,14,24,16.20
2016,09,19,14,25,16.10
2016,09,19,14,26,16.00
2016,09,19,14,27,15.90
2016,09,19,14,28,15.80
2016,09,19,14,29,15.80
2016,09,19,14,30,15.80
2016,09,19,14,31,15.90
2016,09,19,14,32,15.90
2016,09,19,14,33,16.00
2016,09,19,14,34,16.10
2016,09,19,14,35,16.10
2016,09,19,14,36,16.10
2016,09,19,14,37,16.00
2016,09,19,14,38,16.00
2016,09,19,14,39,15.90
2016,09,19,14,40,15.90
2016,09,19,14,41,15.90
2016,09,19,14,42,15.90
2016,09,19,14,43,16.00
2016,09,19,14,44,16.00
2016,09,19,14,45,16.00
2016,09,19,14,46,16.00
2016,09,19,14,47,16.00
2016,09,19,14,48,16.00
2016,09,19,14,49,15.90
2016,09,19,14,50,15.90
2016,09,19,14,51,15.90
2016,09,19,14,52,16.00
2016,09,19,14,53,16.00
2016,09,19,14,54,16.00
2016,09,19,14,55,16.10
2016,09,19,14,56,16.10
2016,09,19,14,57,16.10
2016,09,19,14,58,16.10
2016,09,19,14,59,16.10
2016,09,19,15,00,16.00
2016,09,19,15,01,16.00
2016,09,19,15,02,16.00
2016,09,19,15,03,16.00
2016,09,19,15,04,16.10
2016,09,19,15,05,16.10
2016,09,19,15,06,16.20
2016,09,19,15,07,16.20
2016,09,19,15,08,16.10
2016,09,19,15,09,16.10
2016,09,19,15,10,16.10
2016,09,19,15,11,16.10
2016,09,19,15,12,16.20
2016,09,19,15,13,16.10
2016,09,19,15,14,16.20
2016,09,19,15,15,16.20
2016,09,19,15,16,16.20
2016,09,19,15,17,16.30
2016,09,19,15,18,16.30
2016,09,19,15,19,16.40
2016,09,19,15,20,16.40
2016,09,19,15,21,16.50
2016,09,19,15,22,16.60
2016,09,19,15,23,16.60
2016,09,19,15,24,16.60
2016,09,19,15,25,16.60
2016,09,19,15,26,16.60
2016,09,19,15,27,16.60
2016,09,19,15,28,16.50
2016,09,19,15,29,16.40
2016,09,19,15,30,16.30
2016,09,19,15,31,16.30
2016,09,19,15,32,16.30
2016,09,19,15,33,16.30
2016,09,19,15,34,16.20
2016,09,19,15,35,16.20
2016,09,19,15,36,16.20
2016,09,19,15,37,16.10
2016,09,19,15,38,16.10
2016,09,19,15,39,16.10
2016,09,19,15,40,16.10
2016,09,19,15,41,16.10
2016,09,19,15,42,16.10
2016,09,19,15,43,16.10
2016,09,19,15,44,16.00
2016,09,19,15,45,16.00
2016,09,19,15,46,15.90
2016,09,19,15,47,15.80
2016,09,19,15,48,15.80
2016,09,19,15,49,15.70
2016,09,19,15,50,15.70
2016,09,19,15,51,15.60
2016,09,19,15,52,15.60
2016,09,19,15,53,15.60
2016,09,19,15,54,15.60
2016,09,19,15,55,15.60
2016,09,19,15,56,15.60
2016,09,19,15,57,15.60
2016,09,19,15,58,15.60
2016,09,19,15,59,15.70
2016,09,19,16,00,15.70
2016,09,19,16,01,15.70
2016,09,19,16,02,15.80
2016,09,19,16,03,15.80
2016,09,19,16,04,15.80
2016,09,19,16,05,15.80
2016,09,19,16,06,15.80
2016,09,19,16,07,15.80
2016,09,19,16,08,15.80
2016,09,19,16,09,15.80
2016,09,19,16,10,15.80
2016,09,19,16,11,15.80
2016,09,19,16,12,15.80
2016,09,19,16,13,15.80
2016,09,19,16,14,15.80
2016,09,19,16,15,15.80
2016,09,19,16,16,15.80
2016,09,19,16,17,15.90
2016,09,19,16,18,15.90
2016,09,19,16,19,16.00
2016,09,19,16,20,16.20
2016,09,19,16,21,16.30
2016,09,19,16,22,16.40
2016,09,19,16,23,16.50
2016,09,19,16,24,16.60
2016,09,19,16,25,16.60
2016,09,19,16,26,16.50
2016,09,19,16,27,16.50
2016,09,19,16,28,16.50
2016,09,19,16,29,16.60
2016,09,19,16,30,16.60
2016,09,19,16,31,16.60
2016,09,19,16,32,16.60
2016,09,19,16,33,16.50
2016,09,19,16,34,16.40
2016,09,19,16,35,16.30
2016,09,19,16,36,16.20
2016,09,19,16,37,16.10
2016,09,19,16,38,16.00
2016,09,19,16,39,15.90
2016,09,19,16,40,15.80
2016,09,19,16,41,15.80
2016,09,19,16,42,15.80
2016,09,19,16,43,15.70
2016,09,19,16,44,15.60
2016,09,19,16,45,15.60
2016,09,19,16,46,15.50
2016,09,19,16,47,15.50
2016,09,19,16,48,15.60
2016,09,19,16,49,15.60
2016,09,19,16,50,15.70
2016,09,19,16,51,15.70
2016,09,19,16,52,15.70
2016,09,19,16,53,15.70
2016,09,19,16,54,15.70
2016,09,19,16,55,15.80
2016,09,19,16,56,15.80
2016,09,19,16,57,15.80
2016,09,19,16,58,15.80
2016,09,19,16,59,15.80
2016,09,19,17,00,15.90
2016,09,19,17,01,15.90
2016,09,19,17,02,15.90
2016,09,19,17,03,15.90
2016,09,19,17,04,15.90
2016,09,19,17,05,15.90
2016,09,19,17,06,15.90
2016,09,19,17,07,15.90
2016,09,19,17,08,15.90
2016,09,19,17,09,15.90
2016,09,19,17,10,15.90
2016,09,19,17,26,15.70
2016,09,19,17,27,15.70
2016,09,19,17,28,15.60
2016,09,19,17,29,15.60
2016,09,19,17,30,15.60
2016,09,19,17,31,15.60
2016,09,19,17,32,15.50
2016,09,19,17,33,15.50
2016,09,19,17,34,15.50